Location: Grasslands National Park East Block
(49.0708°N, 106.5295°W)
Time: 17:01:23
(UTC-06:00)

Vanguard 1 Rocket - Pass Details

Date: 28 September 2019
Orbit: 650 x 4226 km, 34.3° (Epoch: 20 October)

Event Time Altitude Azimuth Distance (km) Brightness Sun altitude
Rises 23:33:04 0° 277° (W) 7,022 12.3 -39.9°
Reaches altitude 10° 23:41:57 10° 255° (WSW) 5,050 11.2 -40.6°
Enters shadow 23:46:45 13° 234° (SW) 4,240 10.6 -40.9°
Maximum altitude 23:46:52 13° 234° (SW) 4,224 - -40.9°
Drops below altitude 10° 23:50:53 10° 211° (SSW) 3,931 - -41.2°
Sets 23:55:51 0° 183° (S) 4,259 - -41.5°
